Lancaster, OH

1:58 AM EDT on October 01, 2016 (GMT -0400)
Fairfield County

Weather History for KLHQ - January, 2014

Change the Weather History Date:

Monday, January 20, 2014

  Actual Average Record
Temperature  
Mean Temperature 34 °F -  
Max Temperature 39 °F 34 °F 61 °F (1988)
Min Temperature 28 °F 16 °F -24 °F (1985)
Degree Days  
Heating Degree Days 32    
Moisture  
Dew Point 26 °F    
Average Humidity 71    
Maximum Humidity 89    
Minimum Humidity 57    
Precipitation  
Precipitation 0.00 in - - ()
Sea Level Pressure  
Sea Level Pressure 29.83 in    
Wind  
Wind Speed 11 mph (West)    
Max Wind Speed 17 mph    
Max Gust Speed 24 mph    
Visibility 9 miles    
Events      
Averages and records for this station are not official NWS values.
T = Trace of Precipitation, MM = Missing Value Source: NWS Daily Summary

Daily Weather History Graph

Daily Weather History Graph

Search for Another Location

Airport or City:

Trip Planner

Search our weather history database for the weather conditions in past years. The results will help you decide how hot, cold, wet, or windy it might be!

Date:

Astronomy

Jan. 20, 2014 Rise Set
Actual Time 7:47 AM EST 5:36 PM EST
Civil Twilight 7:18 AM EST 6:05 PM EST
Nautical Twilight 6:45 AM EST 6:38 PM EST
Astronomical Twilight 6:13 AM EST 7:10 PM EST
Moon 10:09 PM EST (1/20) 9:47 AM EST (1/20)
Length of Visible Light 10h 47m
Length of Day
9h 48m
Waning Gibbous, 83% of the Moon is Illuminated
Jan 20
Waning Gibbous
Jan 24
Last Quarter
Jan 30
New
Feb 6
First Quarter
Feb 14
Full

Hourly Weather History & Observations

Time (EST) Temp. Windchill Dew Point Humidity Pressure Visibility Wind Dir Wind Speed Gust Speed Precip Events Conditions
12:53 AM 34.0 °F 25.0 °F 23.0 °F 64% 29.72 in 10.0 mi SW 12.7 mph 21.9 mph N/A   Clear
1:53 AM 35.1 °F 24.8 °F 23.0 °F 61% 29.70 in 10.0 mi SW 17.3 mph 23.0 mph N/A   Clear
2:53 AM 36.0 °F 26.3 °F 23.0 °F 59% 29.69 in 10.0 mi SW 16.1 mph 24.2 mph N/A   Clear
3:53 AM 36.0 °F 27.1 °F 24.1 °F 62% 29.69 in 10.0 mi SW 13.8 mph 21.9 mph N/A   Clear
4:53 AM 37.0 °F 27.7 °F 23.0 °F 57% 29.69 in 10.0 mi SW 16.1 mph 24.2 mph N/A   Clear
5:53 AM 36.0 °F 28.0 °F 24.1 °F 62% 29.71 in 10.0 mi WSW 11.5 mph - N/A   Clear
6:53 AM 36.0 °F 28.5 °F 24.1 °F 62% 29.73 in 10.0 mi WSW 10.4 mph 20.7 mph N/A   Clear
7:53 AM 36.0 °F 27.5 °F 25.0 °F 64% 29.75 in 10.0 mi WSW 12.7 mph - N/A   Overcast
8:26 AM 36.0 °F 28.0 °F 25.0 °F 64% 29.75 in 10.0 mi WSW 11.5 mph - N/A   Overcast
8:53 AM 36.0 °F 28.5 °F 26.1 °F 67% 29.79 in 10.0 mi West 10.4 mph - N/A   Overcast
9:22 AM 36.0 °F 27.5 °F 26.1 °F 67% 29.78 in 10.0 mi WSW 12.7 mph - N/A   Overcast
9:53 AM 37.0 °F 29.3 °F 26.1 °F 65% 29.81 in 10.0 mi West 11.5 mph - N/A   Overcast
10:53 AM 37.0 °F 29.8 °F 28.0 °F 70% 29.84 in 10.0 mi West 10.4 mph - N/A   Overcast
11:53 AM 37.9 °F 30.5 °F 28.9 °F 70% 29.85 in 10.0 mi West 11.5 mph - N/A   Overcast
12:29 PM 37.9 °F 30.5 °F 28.9 °F 70% 29.84 in 10.0 mi West 11.5 mph - N/A   Overcast
12:53 PM 39.0 °F 31.4 °F 28.9 °F 67% 29.84 in 10.0 mi West 12.7 mph - N/A   Mostly Cloudy
1:53 PM 39.0 °F 31.8 °F 28.9 °F 67% 29.84 in 10.0 mi WNW 11.5 mph - N/A   Overcast
2:14 PM 37.9 °F 30.9 °F 28.0 °F 68% 29.82 in 10.0 mi West 10.4 mph - N/A   Overcast
2:53 PM 37.9 °F 30.0 °F 28.9 °F 70% 29.86 in 10.0 mi West 12.7 mph 16.1 mph N/A   Overcast
3:53 PM 37.0 °F 28.5 °F 28.0 °F 70% 29.88 in 10.0 mi West 13.8 mph 18.4 mph N/A   Overcast
4:00 PM 37.0 °F 29.8 °F 27.0 °F 67% 29.86 in 10.0 mi West 10.4 mph - N/A   Overcast
4:53 PM 36.0 °F 31.1 °F 27.0 °F 70% 29.91 in 10.0 mi West 5.8 mph - N/A   Overcast
5:42 PM 33.1 °F 26.9 °F 27.0 °F 78% 29.91 in 8.0 mi NNW 6.9 mph - N/A   Overcast
5:53 PM 33.1 °F 27.7 °F 27.0 °F 78% 29.94 in 8.0 mi NNW 5.8 mph - N/A   Overcast
6:33 PM 32.0 °F 24.8 °F 26.1 °F 79% 29.92 in 9.0 mi NNW 8.1 mph - N/A   Overcast
6:53 PM 32.0 °F 27.5 °F 26.1 °F 79% 29.95 in 9.0 mi North 4.6 mph - N/A   Overcast
7:53 PM 32.0 °F - 27.0 °F 82% 29.95 in 9.0 mi Calm Calm - N/A   Scattered Clouds
8:53 PM 28.9 °F - 26.1 °F 89% 29.94 in 7.0 mi Calm Calm - N/A   Mostly Cloudy
9:53 PM 28.9 °F - 26.1 °F 89% 29.92 in 6.0 mi Calm Calm - N/A   Mostly Cloudy
10:53 PM 30.0 °F - 26.1 °F 85% 29.92 in 8.0 mi Calm Calm - N/A   Overcast
11:53 PM 30.0 °F 26.5 °F 26.1 °F 85% 29.91 in 8.0 mi East 3.5 mph - N/A   Overcast